Weather History for LKMT - December, 2012

Change the Weather History Date:

Friday, December 21, 2012

  Actual Average (EPKT) Record (EPKT)
Temperature  
Mean Temperature 21 °F -  
Max Temperature 23 °F 34 °F 42 °F (2003)
Min Temperature 19 °F 23 °F 8 °F (2001)
Degree Days  
Heating Degree Days 44    
Moisture  
Dew Point 19 °F    
Average Humidity 89    
Maximum Humidity 93    
Minimum Humidity 84    
Precipitation  
Precipitation 0.00 in 0.04 in - ()
Sea Level Pressure  
Sea Level Pressure 30.03 in    
Wind  
Wind Speed 5 mph ()    
Max Wind Speed 7 mph    
Max Gust Speed -    
Visibility 2.1 miles    
Events Snow    
Averages and records for this station are not official NWS values.
T = Trace of Precipitation, MM = Missing Value Source: Averaged Metar Reports

Daily Weather History Graph

Daily Weather History Graph

Search for Another Location

Airport or City:

Trip Planner

Search our weather history database for the weather conditions in past years. The results will help you decide how hot, cold, wet, or windy it might be!

Date:

Astronomy

Dec. 21, 2012 Rise Set
Actual Time 7:42 AM CET 3:49 PM CET
Civil Twilight 7:03 AM CET 4:27 PM CET
Nautical Twilight 6:22 AM CET 5:08 PM CET
Astronomical Twilight 5:43 AM CET 5:48 PM CET
Moon 11:51 AM CET (12/21) 12:44 AM CET (12/21)
Length of Visible Light 9h 23m
Length of Day
8h 07m
Waxing Gibbous, 62% of the Moon is Illuminated
Dec 21
Waxing Gibbous
Dec 28
Full
Jan 5
Last Quarter
Jan 11
New
Jan 19
First Quarter

Hourly Weather History & Observations

Time (CET) Temp. Windchill Dew Point Humidity Pressure Visibility Wind Dir Wind Speed Gust Speed Precip Events Conditions
12:00 AM 19.4 °F 14.3 °F 17.6 °F 93% 30.06 in 2.5 mi North 3.5 mph - N/A   Overcast
12:30 AM 19.4 °F 10.4 °F 17.6 °F 93% 30.04 in 2.5 mi North 6.9 mph - N/A   Overcast
1:00 AM 20 °F - 18 °F 88% 30.12 in 2 mi North 6.7 mph - -   Mist
1:00 AM 21.2 °F 13.6 °F 17.6 °F 86% 30.04 in - North 5.8 mph - N/A   Overcast
1:30 AM 19.4 °F 11.5 °F 17.6 °F 93% 30.04 in 2.2 mi NNE 5.8 mph - N/A   Overcast
2:00 AM 19.4 °F 12.8 °F 17.6 °F 93% 30.04 in 2.2 mi NNE 4.6 mph - N/A   Overcast
2:30 AM 19.4 °F 12.8 °F 17.6 °F 93% 30.04 in 2.2 mi North 4.6 mph - N/A   Overcast
3:00 AM 19.4 °F 11.5 °F 17.6 °F 93% 30.04 in - NNE 5.8 mph - N/A   Overcast
3:30 AM 19.4 °F 11.5 °F 17.6 °F 93% 30.04 in 2.2 mi NNE 5.8 mph - N/A   Overcast
4:00 AM 19.4 °F 12.8 °F 17.6 °F 93% 30.01 in 2.2 mi NNE 4.6 mph - N/A   Overcast
4:30 AM 19.4 °F 11.5 °F 17.6 °F 93% 30.01 in 2.2 mi NNE 5.8 mph - N/A   Overcast
5:00 AM 19.4 °F 11.5 °F 17.6 °F 93% 30.01 in 2.2 mi NE 5.8 mph - N/A   Overcast
5:30 AM 19.4 °F 11.5 °F 17.6 °F 93% 30.01 in 2.2 mi NNE 5.8 mph - N/A   Overcast
6:00 AM 19.4 °F 12.8 °F 17.6 °F 93% 30.01 in 2.2 mi ENE 4.6 mph - N/A   Overcast
6:30 AM 19.4 °F 12.8 °F 17.6 °F 93% 30.01 in 2.2 mi East 4.6 mph - N/A   Overcast
7:00 AM 20 °F - 18 °F 87% 30.08 in 2 mi 4.5 mph - -   Mist
7:00 AM 19.4 °F 14.3 °F 17.6 °F 93% 30.01 in 2.2 mi ESE 3.5 mph - N/A   Overcast
7:30 AM 19.4 °F 14.3 °F 17.6 °F 93% 30.01 in 2.2 mi NNE 3.5 mph - N/A   Overcast
8:00 AM 21.2 °F - 17.6 °F 86% 30.01 in 1.6 mi Variable 2.3 mph - N/A   Overcast
8:30 AM 21.2 °F 14.9 °F 17.6 °F 86% 30.01 in 1.6 mi East 4.6 mph - N/A   Overcast
9:00 AM 21.2 °F 16.4 °F 17.6 °F 86% 30.01 in 1.2 mi East 3.5 mph - N/A   Overcast
9:30 AM 21.2 °F 16.4 °F 17.6 °F 86% 30.01 in 1.2 mi SE 3.5 mph - N/A   Overcast
10:00 AM 21.2 °F 14.9 °F 17.6 °F 86% 30.01 in 1.2 mi ESE 4.6 mph - N/A   Overcast
10:30 AM 21.2 °F - 17.6 °F 86% 30.01 in 1.2 mi Variable 2.3 mph - N/A   Overcast
11:00 AM 21.2 °F - 19.4 °F 93% 30.01 in 1.2 mi Variable 2.3 mph - N/A   Overcast
11:30 AM 21.2 °F - 19.4 °F 93% 30.01 in 1.2 mi Variable 2.3 mph - N/A   Overcast
12:00 PM 21.2 °F 16.4 °F 19.4 °F 93% 30.01 in 1.6 mi ENE 3.5 mph - N/A   Overcast
12:30 PM 23.0 °F 17.0 °F 19.4 °F 86% 30.01 in 1.6 mi ENE 4.6 mph - N/A   Overcast
1:00 PM 22 °F - 19 °F 84% 30.07 in 2 mi 4.5 mph - -   Mist
1:00 PM 23.0 °F 18.4 °F 19.4 °F 86% 29.98 in 1.6 mi East 3.5 mph - N/A   Overcast
1:30 PM 23.0 °F 18.4 °F 19.4 °F 86% 29.98 in 1.6 mi ENE 3.5 mph - N/A   Overcast
2:00 PM 23.0 °F 17.0 °F 19.4 °F 86% 29.98 in 1.6 mi NE 4.6 mph - N/A   Overcast
2:30 PM 23.0 °F 15.8 °F 19.4 °F 86% 30.01 in 1.6 mi NE 5.8 mph - N/A   Overcast
3:00 PM 23.0 °F 18.4 °F 19.4 °F 86% 30.01 in 1.6 mi ENE 3.5 mph - N/A   Overcast
3:30 PM 23.0 °F 17.0 °F 19.4 °F 86% 30.01 in 1.6 mi NE 4.6 mph - N/A   Overcast
4:00 PM 23.0 °F 14.7 °F 21.2 °F 93% 30.01 in 1.9 mi NE 6.9 mph - N/A   Overcast
4:30 PM 23.0 °F 14.7 °F 21.2 °F 93% 30.01 in 2.2 mi NE 6.9 mph - N/A   Overcast
5:00 PM 23.0 °F 14.7 °F 19.4 °F 86% 30.01 in 2.2 mi NE 6.9 mph - N/A   Overcast
5:30 PM 23.0 °F 14.7 °F 19.4 °F 86% 30.01 in 2.2 mi ENE 6.9 mph - N/A   Overcast
6:00 PM 23.0 °F 14.7 °F 19.4 °F 86% 30.04 in 2.2 mi NE 6.9 mph - N/A   Overcast
6:30 PM 23.0 °F 14.7 °F 19.4 °F 86% 30.04 in 2.5 mi ENE 6.9 mph - N/A   Overcast
7:00 PM 22 °F - 20 °F 87% 30.12 in 3 mi NE 6.7 mph - -   Mist
7:00 PM 23.0 °F 14.7 °F 19.4 °F 86% 30.04 in 2.8 mi NE 6.9 mph - N/A   Overcast
7:30 PM 23.0 °F 17.0 °F 19.4 °F 86% 30.06 in 2.8 mi NE 4.6 mph - N/A Snow Light Snow
8:00 PM 23.0 °F 18.4 °F 19.4 °F 86% 30.06 in - ENE 3.5 mph - N/A   Overcast
8:30 PM 23.0 °F 17.0 °F 19.4 °F 86% 30.06 in - ENE 4.6 mph - N/A   Overcast
9:00 PM 23.0 °F 15.8 °F 19.4 °F 86% 30.06 in 2.8 mi ENE 5.8 mph - N/A   Overcast
9:30 PM 23.0 °F 17.0 °F 19.4 °F 86% 30.06 in 2.8 mi East 4.6 mph - N/A   Overcast
10:00 PM 23.0 °F 15.8 °F 19.4 °F 86% 30.06 in 2.8 mi ENE 5.8 mph - N/A   Overcast
10:30 PM 23.0 °F 17.0 °F 19.4 °F 86% 30.09 in 2.8 mi East 4.6 mph - N/A   Overcast
11:00 PM 23.0 °F 17.0 °F 19.4 °F 86% 30.09 in 2.8 mi East 4.6 mph - N/A   Overcast
11:30 PM 23.0 °F - 19.4 °F 86% 30.09 in 2.8 mi Variable 2.3 mph - N/A   Overcast